Location: ČR
(50.0000°N, 15.0000°E)
Time: 14:21:58
(UTC+00:00)

Explorer 7 - Pass Details

Date: 26 October 2021
Orbit: 483 x 675 km, 50.3° (Epoch: 27 November)

Event Time Altitude Azimuth Distance (km) Brightness Sun altitude
Rises 22:39:45 0° 277° (W) 2,733 - -52.8°
Reaches altitude 10° 22:41:56 10° 277° (W) 1,869 - -52.8°
Maximum altitude 22:46:14 89° 195° (SSW) 601 - -52.8°
Drops below altitude 10° 22:50:49 10° 100° (E) 1,990 - -52.7°
Sets 22:53:11 0° 100° (E) 2,927 - -52.7°
